RH
92 90 62 59 61 58 62 63 64 66 71 76 77 76 75 73 50 43 45 31 28 28 28 26 43 60 68 72 73 84 96 93
94 89 74 77 66 68 82 71 66 66 67 66 66 60 57 59 47 38 46 43 41 43 34 24 22 17 34 53 62 64 76 82
96 95 91 89 91 94 73 59 51 50 52 57 55 50 45 42 40 34 34 41 45 39 27 14 12 14 24 37 44 57 58 53
96 96 96 95 82 79 62 53 46 45 45 47 49 55 53 52 52 52 52 50 41 23 9 11 17 19 24 36 44 46 46 43
97 96 90 95 86 82 70 58 49 47 52 58 58 56 51 37 20 21 17 10 9 12 15 18 24 27 42 52 54 56 58 64
97 97 98 90 83 84 64 27 35 19 12 17 22 14 10 11 12 14 22 34 39 44 45 49 50 51 52 53 57 64 67 70
97 97 86 83 76 27 14 8 8 8 8 8 12 21 31 35 36 39 43 49 55 53 52 53 54 53 53 51 49 48 49 51
73 76 68 61 30 11 8 8 10 16 28 40 44 50 50 47 47 49 52 52 41 27 16 10 7 6 5 5 5 5 6 7
52 38 21 11 9 9 9 9 14 23 31 34 40 47 53 52 48 35 15 8 6 5 4 4 4 4 4 4 4 4 4 4
12 10 10 10 10 9 8 9 19 33 34 30 38 42 49 22 9 8 5 4 4 4 5 5 5 5 5 5 5 5 5 5
12 11 11 10 9 9 13 22 26 32 28 19 39 47 14 8 5 5 5 5 5 5 5 4 4 5 5 5 5 5 5 5
14 13 12 10 10 13 17 30 32 27 22 35 52 16 7 5 5 5 5 5 5 4 4 4 5 5 5 4 4 4 4 4
17 13 13 11 14 19 26 32 40 53 61 57 19 8 6 6 6 6 6 6 6 6 6 6 6 6 6 5 4 3 3 3
15 16 12 11 12 22 20 16 32 46 69 21 8 7 7 7 7 8 8 7 7 7 7 7 7 6 4 4 3 3 4 6
18 17 13 13 14 14 12 13 15 53 45 9 8 8 8 8 10 10 10 9 8 8 8 7 6 5 3 3 5 11 16 20
23 18 14 14 12 10 9 12 29 67 16 8 8 8 10 11 12 12 11 10 9 9 8 6 5 4 4 10 16 20 21 20
26 18 16 16 12 9 9 11 62 38 8 8 9 9 11 12 13 13 12 11 10 9 7 5 4 5 15 22 25 24 18 12
29 20 18 16 13 10 10 20 69 18 9 9 9 10 11 13 14 14 12 11 10 8 6 4 4 13 23 25 18 10 9 10
33 21 19 15 12 10 10 54 56 12 11 10 10 11 12 15 16 14 12 11 9 7 5 4 8 22 25 16 10 13 17 17
Wind_Speed
30 27 24 28 26 26 30 31 33 36 38 39 36 35 36 38 37 33 37 36 36 38 39 41 44 47 48 46 47 49 56 61
29 20 23 27 30 33 34 33 36 36 35 31 33 37 38 41 41 40 43 45 47 49 50 50 49 47 47 50 50 51 52 53
32 26 22 28 30 30 32 34 35 33 32 35 38 39 41 43 44 46 50 54 56 58 59 57 55 53 52 51 49 51 53 55
25 28 20 22 21 24 30 33 33 35 37 39 41 43 45 46 48 52 55 58 60 62 61 59 55 52 51 52 50 48 49 54
32 19 18 22 24 26 28 32 36 39 42 45 46 47 49 52 54 56 59 60 57 56 54 53 54 53 52 51 50 49 48 49
21 15 18 28 26 28 32 38 42 43 44 46 49 50 52 54 52 49 48 46 45 46 46 48 50 50 50 50 51 50 48 47
13 18 21 26 30 33 32 34 37 39 41 43 44 44 43 44 45 45 43 42 42 44 45 46 47 49 51 51 51 53 54 54
19 24 29 31 34 37 37 36 37 37 37 35 36 39 42 43 43 42 41 40 40 41 43 45 47 48 50 52 54 55 57 57
23 26 30 31 34 37 38 39 39 39 39 40 42 42 41 38 38 38 39 40 41 44 46 48 50 53 56 58 59 61 62 63
28 32 35 36 37 39 39 39 40 39 40 42 43 43 40 37 37 39 40 43 45 47 50 54 57 60 63 66 68 69 71 73
31 32 35 35 35 37 37 38 41 41 42 46 46 42 39 40 40 42 45 48 52 54 57 60 63 66 68 71 73 76 79 82
31 34 36 37 37 37 39 41 44 45 44 46 42 40 40 42 44 48 50 52 55 59 63 65 70 74 76 79 83 86 87 89
34 35 35 35 36 38 39 39 41 45 44 42 39 40 41 43 47 49 53 56 60 65 68 73 78 81 85 89 92 92 91 90
33 34 35 37 39 38 38 41 43 45 42 39 39 39 41 45 49 54 58 62 67 70 74 79 83 87 91 92 91 88 85 82
33 36 37 39 41 43 43 42 45 44 39 39 38 40 43 49 53 58 63 68 72 76 81 85 88 90 89 86 80 76 73 72
35 37 39 40 43 43 41 42 44 40 39 39 39 42 47 52 58 63 67 72 76 81 85 88 90 89 82 76 72 71 71 71
37 38 39 41 43 42 42 43 43 39 39 40 42 46 51 57 61 66 70 75 81 85 88 90 88 79 73 72 74 74 76 79
38 38 39 42 43 43 43 44 41 40 41 43 46 50 55 60 65 69 74 79 83 88 89 88 80 73 73 75 78 81 79 76
38 39 41 42 43 44 45 43 42 41 42 45 49 53 58 62 67 71 76 82 85 89 89 84 77 73 75 79 80 76 74 73
Wind_Direction
283 286 285 291 290 290 296 295 298 302 302 306 303 302 294 295 300 302 309 307 308 307 305 299 289 286 285 284 284 283 273 270
261 266 277 285 286 296 297 296 300 302 303 300 296 298 298 296 296 294 303 303 303 305 305 299 295 293 288 281 280 280 280 275
299 272 265 275 281 292 297 297 298 300 300 299 299 299 299 299 295 291 295 300 300 302 301 297 295 292 291 289 283 279 277 275
312 284 287 304 302 293 292 300 299 300 301 300 297 296 295 295 295 293 294 295 295 295 295 296 295 292 290 290 289 285 278 275
300 280 305 301 292 292 304 304 303 302 301 300 297 295 294 294 294 294 294 294 294 295 294 294 296 296 296 296 295 292 286 279
292 317 297 288 299 297 300 303 301 300 298 296 296 295 294 296 297 298 298 300 300 303 303 304 303 304 302 299 297 295 291 287
274 279 281 285 299 303 299 298 295 293 294 294 295 300 306 307 305 303 304 305 303 302 302 300 299 300 299 298 296 294 292 290
311 298 300 298 300 299 304 305 303 303 305 308 310 314 312 309 306 304 303 303 304 305 305 304 302 301 299 297 296 294 292 290
305 298 300 303 303 310 311 309 308 310 312 312 311 313 312 311 308 307 307 308 308 306 304 303 303 301 300 298 296 294 292 291
311 313 316 315 314 312 309 309 310 313 315 317 315 312 311 311 310 310 309 308 306 306 306 306 305 304 302 300 297 294 291 288
315 313 310 311 312 311 310 309 309 308 311 317 315 313 313 313 314 313 313 313 313 310 309 307 305 303 301 298 295 292 289 286
310 310 316 318 314 311 309 307 309 313 313 314 314 312 315 318 318 317 317 315 313 311 309 308 306 305 303 301 298 295 291 287
313 314 316 313 310 309 309 317 318 317 319 316 313 315 318 318 318 319 319 319 317 315 313 311 310 309 307 305 301 297 292 286
310 313 313 312 309 310 315 314 313 321 316 313 314 317 319 320 319 321 321 320 320 317 316 314 313 312 309 305 301 296 292 289
309 311 311 310 310 309 308 311 312 317 313 314 316 318 318 318 320 321 321 322 321 319 318 317 315 313 310 305 301 298 295 293
307 308 307 307 306 305 308 309 314 313 311 312 312 315 317 319 322 323 323 322 321 321 321 319 318 316 311 306 303 299 297 294
306 306 305 303 306 307 308 309 313 310 310 311 313 314 318 321 322 323 324 323 324 324 323 322 321 316 310 307 306 304 300 296
302 304 304 305 309 309 310 311 308 308 310 311 312 315 318 319 323 324 325 325 326 326 326 326 322 317 313 312 311 309 306 302
303 306 306 306 307 309 312 312 306 308 311 312 314 317 319 322 324 325 327 328 329 329 329 328 324 320 318 318 316 315 312 309